Preview of NWS' New Version of Forecast
This preview is not operational and should not be used for support decisions.

Regional Weather Roundup (RWR)

Issued by National Weather Service (NWS)

                            
000
ASPQ40 PGUM 230710
RWRPQ 
WEATHER ROUNDUP FOR THE MARIANAS AND MICRONESIA
NATIONAL WEATHER SERVICE TIYAN GU
500 PM CHST SUN JUN 23 2019

GUZ001>004-230800-
MARIANA ISLANDS-
  
CITY           SKY/WX    TMP DP  RH WIND       PRES   REMARKS
GUAM AIRPORT   MOSUNNY   86  75  70 E15       29.83S HX  95           
ANDERSEN AFB   MOSUNNY   86  77  74 E15       29.84S HX  97           
ROTA AIRPORT   PTSUNNY   84  77  79 E18       29.82S HX  94           
TINIAN AP      MOSUNNY   88  75  66 E17       29.81F HX  97           
SAIPAN AP      MOSUNNY   88  75  66 E15       29.83F HX  97           

$$

PMZ161-230800-
REPUBLIC OF PALAU-
  
CITY           SKY/WX    TMP DP  RH WIND       PRES   REMARKS
KOROR AP       PTSUNNY   86  77  74 SW7       29.74S HX  97           
KOROR WSO      NOT AVBL                                               

$$

PMZ171>174-230800-
FEDERATED STATES OF MICRONESIA-
  
CITY           SKY/WX    TMP DP  RH WIND       PRES   REMARKS
YAP AIRPORT    PTSUNNY   88  81  79 VRB5      29.78R HX 105           
CHUUK AP       TSTM      79  75  89 VRB5      29.80R                  
POHNPEI AP     NOT AVBL                                               
POHNPEI WSO    CLOUDY    82  75  78 E5        29.82R                  
KOSRAE AP      NOT AVBL                                               

$$

PMZ181-230800-
REPUBLIC OF THE MARSHALL ISLANDS-
  
CITY           SKY/WX    TMP DP  RH WIND       PRES   REMARKS
KWAJALEIN AP   MOCLDY    84  77  79 E13G18    29.80R HX  94           
MAJURO AP      MOCLDY    86  77  74 E12       29.78R HX  97           
MAJURO WSO     MOCLDY    82  77  83 E12       29.77R HX  91           

$$